Miscellaneous Local Product
Issued by NWS North Platte, NE

Home | Current Version | Previous Version | Graphics & Text | Print | Product List | Glossary On
Versions: 1 2 3 4 5 6 7 8 9 10 11 12 13 14 15 16 17 18 19 20 21 22 23 24 25 26 27 28 29 30 31 32 33 34 35 36 37 38 39 40 41 42 43 44 45 46 47 48 49 50
000
AXUS43 KLBF 270510
MISLBF


WESTERN AND NORTH CENTRAL NEBRASKA HOURLY WEATHER ROUNDUP
NATIONAL WEATHER SERVICE NORTH PLATTE NE
1200 AM CDT MON MAR 27 2017

NOTE: "FAIR" INDICATES FEW OR NO CLOUDS BELOW 12,000 FEET WITH NO
SIGNIFICANT WEATHER AND/OR OBSTRUCTIONS TO VISIBILITY.

NOTE: STATIONS NOT REPORTING VARIABLES SUCH AS SKY/WEATHER OR
PRESSURE ARE PROVIDED BY RAWS AND APRS NETWORKS AND ARE NOT UNDER
NATIONAL WEATHER SERVICE QUALITY CONTROL.

...OBSERVATIONS IN AND NEAR THE EASTERN PANHANDLE OF NEBRASKA...

CITY           SKY/WX    TMP DP  RH WIND       PRES   REMARKS
PINE RIDGE     CLOUDY    43  40  89 SE5       29.95F
CHADRON        CLOUDY    41  38  89 S5        29.95F
ALLIANCE       CLEAR     34  34 100 E3        29.94F
SIDNEY         CLEAR     34  32  92 NW10      29.97S WCI  26
CRESCENT LAKE    N/A     40  38  93 NE6         N/A
$$

...OBSERVATIONS IN NORTHERN NEBRASKA AND FAR SOUTHERN SOUTH DAKOTA...

CITY           SKY/WX    TMP DP  RH WIND       PRES   REMARKS
WINNER         MOCLDY    38  35  89 CALM      29.97F
VALENTINE      CLOUDY    40  34  79 CALM      29.97S
THEDFORD       CLOUDY    43  40  92 CALM      29.96S
AINSWORTH      MOCLDY    40  40  99 CALM      29.97R
O`NEILL        CLOUDY    44  41  91 CALM      29.95F
ORD            MOCLDY    44  40  85 CALM      29.93F
BROKEN BOW     CLOUDY    46  43  89 CALM      29.94R
VALENTINE NWR    N/A     42  40  93 CALM        N/A
HALSEY           N/A     41  40  95 E5          N/A
BUTTE            N/A     39  38  95 CALM        N/A
CHAMBERS         N/A     43  40  89 CALM        N/A
EWING            N/A     43  41  92 CALM        N/A
$$

...OBSERVATIONS IN SOUTHWEST NEBRASKA AND FAR NORTHEAST COLORADO...

CITY           SKY/WX    TMP DP  RH WIND       PRES   REMARKS
HOLYOKE        FAIR      45  37  76 NW9       29.94S
IMPERIAL       CLOUDY    45  41  86 S7        29.93S
OGALLALA       CLEAR     45  38  77 NW13      29.92F
NORTH PLATTE   CLOUDY    42  39  89 CALM      29.94R
MCCOOK         CLEAR     41  41 100 W7        29.94R
LEXINGTON      CLOUDY    40  38  93 CALM      29.94S
STAPLETON        N/A     41  38  91 CALM        N/A
GOTHENBURG       N/A     45  40  82 CALM        N/A
CALLAWAY         N/A     40  38  91 S3          N/A
$$

...OBSERVATIONS IN CENTRAL LINCOLN COUNTY AREA...

CITY           SKY/WX    TMP DP  RH WIND       PRES   REMARKS
N.P. AIRPORT   CLOUDY    42  39  89 CALM      29.94R
N.P. DOWNTOWN    N/A     46  41  83 CALM        N/A
N.P. SOUTHEAST   N/A     44  40  85 CALM        N/A
N.P. HILLCREST   N/A     45  41  86 CALM        N/A
$$

...SOME OBSERVATIONS FROM AROUND THE REGION...

CITY           SKY/WX    TMP DP  RH WIND       PRES   REMARKS
DENVER         CLOUDY    42  35  76 NE6       29.98S
LIMON          CLOUDY    29  28  96 CALM      29.98S
ASPEN          CLOUDY    31  25  78 S3        30.03R
LARAMIE        CLOUDY    31  29  92 S9        29.97R WCI  23
CASPER         CLOUDY    39  33  79 CALM      29.90F
CHEYENNE       CLOUDY    36  33  89 S3        29.98S
SCOTTSBLUFF    CLOUDY    34  29  82 NE3       29.96S
GRAND ISLAND   CLOUDY    45  45 100 NE3       29.94S FOG
OMAHA          CLOUDY    47  42  83 N3        29.95R
SIOUX FALLS    CLOUDY    43  39  86 E5        29.96F
PIERRE         CLOUDY    41  38  89 CALM      29.95S
RAPID CITY     FOG       32  32 100 CALM      29.93F VSB 1/4
BISMARCK       CLEAR     40  35  83 E3        29.93R
KANSAS CITY    DRIZZLE   47  46  97 NE6       29.93R
HILL CITY      CLOUDY    45  44  97 CALM      29.92F
WICHITA        CLOUDY    50  49  96 NE12      29.82S
DODGE CITY     CLOUDY    44  42  93 N15       29.92F
OKLAHOMA CITY  PTCLDY    60  55  83 W8        29.75R
DALLAS         MOCLDY    72  61  68 S22       29.75F
AMARILLO       CLEAR     41  36  82 N13       29.97R
$$




USA.gov is the U.S. government's official web portal to all federal, state and local government web resources and services.